Reid Restricted Landing Area

Jump to: basic info | weather | runways | comments

Related pages: nearby airports | nearby navaids | notams | map

Basic information (top)

Codes: 6IL6
Location: lon 42.118401, lat -88.407898, elev 920 ft / 280 m msl
Status: small_airport

Weather (top)

Current conditions for Dupage Airport 15nm (27km) SSE (rec'd 2015/01/25 17:52Z):

KDPA 251752Z 04021G25KT 3SM -SN BR OVC012 M01/M03 A2979 RMK AO2 PK WND 04027/1731 SLP094 P0000 60000 T10111033 10006 21011 51008

Airport forecast for Dupage Airport 15nm (27km) SSE (rec'd 2015/01/25 18:39Z):

TAF KDPA 251737Z 2518/2618 03018G27KT 4SM -SN BR OVC010 
      TEMPO 2518/2520 2SM -SN BR 
     FM252200 03016G24KT P6SM -SN BKN020 
     FM260300 02012KT P6SM BKN025 
     FM260700 VRB03KT P6SM SCT025 
     FM261400 21005KT P6SM FEW025 BKN080

Runways (top)

E/W: 3,000 x 105 ft (914 x 32 m) — grass — not lighted

N/S: 2,100 x 105 ft (640 x 32 m) — grass — not lighted

Latest comments (top)

No comments yet for Reid Restricted Landing Area

More... (top)

See also NOTAMs and nearby airports and navaids, or visit the Reid Restricted Landing Area page at the main OurAirports website..